Temp
62 62 62 61 61 61 61 59 59 59 59 59 59 59 59 60 60 60 59 59 59 60 60 61 61 61 61 62 61 61 61 61 61 61 60 60 60 60 60 59 59 59
60 60 60 60 60 60 60 60 60 59 59 60 60 60 60 60 60 60 60 59 59 59 60 60 61 61 61 61 61 60 60 60 60 61 61 60 60 60 60 60 60 60
60 59 60 59 60 59 59 60 60 60 60 60 60 60 60 60 60 60 61 61 60 60 60 60 61 60 61 61 61 60 60 60 60 60 59 60 60 60 60 60 60 59
60 60 60 60 60 60 60 59 59 59 59 59 59 59 59 59 59 59 59 57 60 60 60 60 60 60 60 60 60 60 60 60 60 61 60 60 60 60 60 60 59 59
60 60 60 60 60 60 59 59 59 59 59 59 59 58 58 58 58 58 58 58 59 59 60 59 60 60 60 60 59 59 59 59 59 60 59 58 58 58 59 59 58 58
59 60 60 60 60 59 58 59 59 59 59 58 58 58 58 57 58 57 57 57 57 58 58 58 58 59 59 59 59 58 58 58 57 58 58 57 57 57 58 57 57 56
58 58 58 58 58 58 58 59 59 58 58 59 56 56 57 56 56 57 57 57 57 56 57 57 57 58 58 58 58 57 56 57 56 56 56 56 55 55 54 55 54 54
56 56 56 56 57 57 57 58 58 57 58 55 55 56 55 56 55 56 56 56 57 57 56 56 57 58 57 57 56 55 55 56 55 54 54 53 52 53 52 51 51 51
53 54 54 55 55 56 56 56 57 56 54 54 54 53 52 54 55 54 55 55 55 55 56 55 56 56 56 55 55 55 54 54 54 53 53 52 51 51 51 51 50 50
51 51 51 52 53 54 55 55 55 53 51 52 53 52 52 51 52 54 53 53 53 53 53 54 54 54 53 53 54 53 53 54 52 52 51 52 52 51 51 49 49 48
48 48 50 51 51 52 52 52 51 50 49 51 51 50 51 50 48 49 51 51 51 52 52 52 52 52 52 51 51 51 53 52 51 50 50 50 50 49 46 48 47 47
46 46 48 50 50 51 51 50 49 49 49 49 50 51 49 49 49 47 48 49 50 51 52 51 51 50 51 51 50 49 49 50 49 48 47 47 46 45 45 45 45 45
45 46 47 48 48 49 48 48 48 47 47 48 46 49 48 47 46 47 46 49 49 49 50 50 49 48 49 49 49 48 47 47 45 44 44 43 43 43 43 43 43 43
44 44 44 46 46 46 46 46 46 46 46 46 44 47 48 47 47 47 46 45 47 47 47 46 47 47 47 46 46 46 44 43 43 43 42 41 40 39 39 40 40 40
42 42 42 42 43 44 44 45 45 45 44 44 43 45 46 46 47 47 43 42 41 43 43 43 45 46 45 45 44 42 44 44 43 42 41 40 39 38 37 38 38 39
41 41 41 41 42 43 44 43 43 43 43 42 42 42 41 40 41 42 43 44 42 40 40 42 43 43 40 41 42 45 43 44 42 41 40 40 40 38 36 37 38 38
40 40 40 40 42 42 42 42 43 41 41 41 41 40 40 39 40 41 41 41 43 42 41 41 42 41 38 41 42 42 42 42 42 41 40 40 39 39 38 37 37 37
41 40 40 40 40 41 41 41 41 40 41 41 40 39 39 38 39 41 40 39 40 40 41 40 39 38 40 41 42 41 41 43 42 41 39 39 39 38 38 37 37 37
41 40 40 40 40 40 40 40 40 40 40 39 40 39 38 39 40 39 40 39 40 40 39 38 38 38 40 41 41 41 41 41 40 39 38 38 37 37 37 37 36 36
41 41 40 40 40 39 39 39 40 40 40 39 39 37 39 39 38 39 39 39 39 40 40 39 39 38 40 40 41 41 41 41 40 39 38 38 38 38 38 38 37 38
41 40 40 40 39 39 39 39 40 39 38 38 39 38 38 38 38 38 38 38 38 39 39 38 39 38 40 40 40 41 41 41 40 40 39 38 38 37 38 38 38 38
40 40 40 40 39 39 39 39 39 39 38 37 38 38 38 38 37 38 37 37 37 37 38 38 39 38 39 40 40 41 41 38 38 39 38 38 37 37 37 37 37 37
40 40 39 39 39 38 38 39 38 38 38 37 37 37 37 37 37 38 37 37 36 37 38 38 38 38 39 39 40 41 39 37 37 37 37 37 36 36 36 36 37 36
40 40 39 39 38 38 39 39 39 38 38 37 38 37 37 37 38 37 37 37 37 37 38 38 37 37 38 39 39 40 38 37 37 37 35 35 34 35 36 36 36 33
40 40 39 39 38 38 38 38 37 37 37 36 38 37 37 37 36 37 36 36 36 37 35 37 37 36 37 38 39 39 38 37 37 37 35 35 34 34 34 35 34 33
38 38 39 38 38 38 38 37 37 36 36 36 37 37 37 37 36 37 36 36 35 35 36 38 37 36 36 38 38 39 38 37 37 37 36 34 35 34 32 32 33 33
MSLP
1014.33 1014.59 1014.75 1015.01 1015.09 1015.19 1015.51 1015.89 1016.13 1016.37 1016.49 1016.69 1016.79 1016.81 1017.03 1017.05 1017.47 1017.71 1017.89 1018.07 1018.15 1018.23 1018.31 1018.41 1018.49 1018.61 1018.71 1018.81 1018.91 1019.01 1019.03 1019.05 1019.11 1019.19 1019.27 1019.33 1019.43 1019.51 1019.61 1019.69 1019.73 1019.73
1013.91 1014.13 1014.39 1014.67 1014.85 1014.99 1015.17 1015.33 1015.61 1015.81 1015.89 1016.07 1016.11 1016.27 1016.49 1016.77 1017.03 1017.25 1017.43 1017.61 1017.75 1017.81 1017.85 1018.01 1018.11 1018.21 1018.33 1018.43 1018.49 1018.59 1018.61 1018.67 1018.69 1018.71 1018.81 1018.83 1018.89 1019.05 1019.09 1019.09 1019.15 1019.15
1013.55 1013.89 1014.07 1014.21 1014.19 1014.35 1014.67 1014.95 1015.17 1015.35 1015.45 1015.51 1015.75 1015.95 1016.13 1016.41 1016.63 1016.85 1016.97 1017.11 1017.23 1017.33 1017.51 1017.63 1017.77 1017.85 1017.93 1017.99 1018.07 1018.15 1018.19 1018.25 1018.29 1018.31 1018.37 1018.35 1018.43 1018.59 1018.61 1018.65 1018.67 1018.75
1013.07 1013.23 1013.41 1013.53 1013.73 1013.99 1014.33 1014.73 1014.89 1014.99 1015.17 1015.35 1015.35 1015.53 1015.81 1016.09 1016.33 1016.55 1016.67 1016.77 1016.85 1016.97 1017.13 1017.27 1017.35 1017.45 1017.55 1017.63 1017.73 1017.77 1017.77 1017.79 1017.79 1017.91 1017.97 1018.01 1018.07 1018.17 1018.21 1018.29 1018.33 1018.35
1012.57 1012.81 1013.03 1013.19 1013.43 1013.77 1014.13 1014.37 1014.43 1014.55 1014.71 1014.69 1014.99 1015.31 1015.63 1015.89 1016.11 1016.21 1016.33 1016.45 1016.55 1016.67 1016.79 1016.89 1016.97 1017.07 1017.17 1017.29 1017.39 1017.47 1017.51 1017.57 1017.57 1017.67 1017.73 1017.77 1017.83 1017.95 1017.95 1018.05 1018.05 1018.11
1012.37 1012.51 1012.67 1012.91 1013.15 1013.53 1013.81 1013.87 1013.87 1014.11 1014.29 1014.53 1014.59 1014.99 1015.25 1015.45 1015.67 1015.79 1015.95 1016.11 1016.27 1016.39 1016.45 1016.53 1016.65 1016.73 1016.83 1016.93 1017.01 1017.03 1017.13 1017.27 1017.31 1017.41 1017.45 1017.51 1017.59 1017.65 1017.69 1017.75 1017.83 1017.91
1012.05 1012.31 1012.53 1012.75 1013.05 1013.25 1013.39 1013.43 1013.53 1013.73 1013.83 1013.93 1014.43 1014.69 1014.89 1015.17 1015.27 1015.37 1015.55 1015.71 1015.91 1016.03 1016.09 1016.19 1016.33 1016.43 1016.51 1016.63 1016.71 1016.79 1016.91 1017.01 1017.05 1017.17 1017.23 1017.29 1017.39 1017.43 1017.59 1017.65 1017.69 1017.73
1011.97 1012.27 1012.47 1012.71 1012.83 1012.99 1013.07 1013.07 1013.17 1013.29 1013.41 1013.89 1014.09 1014.25 1014.59 1014.71 1014.83 1014.99 1015.21 1015.41 1015.55 1015.63 1015.79 1015.89 1015.99 1016.09 1016.21 1016.33 1016.43 1016.55 1016.67 1016.81 1016.89 1016.97 1017.05 1017.11 1017.23 1017.31 1017.49 1017.67 1017.69 1017.65
1011.93 1012.11 1012.29 1012.41 1012.51 1012.55 1012.63 1012.63 1012.71 1012.93 1013.31 1013.59 1013.79 1014.03 1014.27 1014.29 1014.45 1014.71 1014.93 1015.07 1015.17 1015.27 1015.41 1015.57 1015.67 1015.79 1015.91 1016.05 1016.15 1016.25 1016.35 1016.51 1016.59 1016.69 1016.81 1016.93 1017.05 1017.11 1017.19 1017.31 1017.51 1017.57
1011.73 1011.87 1012.03 1012.09 1012.13 1012.07 1012.15 1012.23 1012.49 1012.81 1013.15 1013.37 1013.49 1013.73 1013.89 1014.09 1014.27 1014.45 1014.63 1014.73 1014.83 1014.99 1015.13 1015.25 1015.41 1015.55 1015.67 1015.79 1015.83 1015.97 1016.13 1016.27 1016.39 1016.53 1016.67 1016.79 1016.81 1016.87 1017.01 1017.27 1017.37 1017.47
1011.61 1011.75 1011.77 1011.79 1011.79 1011.87 1011.95 1012.15 1012.43 1012.71 1012.97 1013.07 1013.29 1013.45 1013.59 1013.87 1014.15 1014.29 1014.37 1014.47 1014.57 1014.71 1014.87 1015.03 1015.15 1015.29 1015.41 1015.55 1015.69 1015.71 1015.79 1016.07 1016.25 1016.37 1016.49 1016.59 1016.65 1016.75 1016.95 1017.11 1017.21 1017.23
1011.49 1011.63 1011.53 1011.45 1011.53 1011.67 1011.77 1012.05 1012.33 1012.53 1012.71 1012.89 1013.01 1013.11 1013.41 1013.63 1013.79 1014.09 1014.15 1014.25 1014.37 1014.45 1014.53 1014.67 1014.85 1015.01 1015.15 1015.25 1015.43 1015.65 1015.83 1015.95 1016.07 1016.23 1016.37 1016.47 1016.61 1016.79 1016.93 1017.09 1017.09 1017.15
1011.31 1011.27 1011.31 1011.35 1011.43 1011.55 1011.79 1012.01 1012.15 1012.31 1012.51 1012.63 1012.87 1012.95 1013.11 1013.35 1013.59 1013.73 1013.95 1013.99 1014.09 1014.21 1014.31 1014.43 1014.63 1014.83 1014.99 1015.13 1015.23 1015.49 1015.69 1015.83 1015.99 1016.09 1016.23 1016.45 1016.63 1016.73 1016.83 1016.93 1016.99 1017.09
1011.11 1011.27 1011.37 1011.39 1011.51 1011.67 1011.79 1011.89 1012.03 1012.19 1012.31 1012.49 1012.73 1012.77 1012.85 1013.03 1013.21 1013.43 1013.65 1013.85 1013.85 1013.93 1014.03 1014.27 1014.41 1014.53 1014.71 1014.95 1015.11 1015.29 1015.49 1015.79 1015.99 1016.05 1016.21 1016.51 1016.69 1016.81 1016.91 1016.87 1016.97 1017.17
1011.29 1011.41 1011.51 1011.61 1011.67 1011.73 1011.77 1011.83 1011.91 1012.03 1012.19 1012.31 1012.47 1012.53 1012.63 1012.73 1012.93 1013.09 1013.33 1013.55 1013.73 1013.79 1013.91 1014.15 1014.23 1014.21 1014.43 1014.79 1014.99 1015.29 1015.47 1015.65 1015.89 1016.01 1016.17 1016.29 1016.53 1016.75 1017.05 1017.15 1017.13 1017.23
1011.31 1011.37 1011.47 1011.59 1011.61 1011.55 1011.57 1011.67 1011.77 1011.87 1011.99 1012.15 1012.27 1012.37 1012.49 1012.73 1012.87 1012.99 1012.99 1013.07 1013.31 1013.65 1013.83 1013.95 1013.99 1014.23 1014.45 1014.63 1014.77 1014.93 1015.27 1015.51 1015.75 1015.89 1015.99 1016.17 1016.37 1016.67 1017.07 1017.25 1017.21 1017.31
1011.07 1011.17 1011.35 1011.37 1011.35 1011.47 1011.47 1011.53 1011.59 1011.77 1011.87 1011.99 1012.13 1012.27 1012.37 1012.57 1012.69 1012.75 1012.89 1013.05 1013.13 1013.31 1013.55 1013.79 1013.95 1014.19 1014.33 1014.49 1014.63 1014.87 1015.09 1015.29 1015.41 1015.67 1015.85 1015.97 1016.17 1016.43 1016.63 1016.97 1017.21 1017.31
1010.73 1010.97 1011.13 1011.13 1011.25 1011.23 1011.29 1011.41 1011.55 1011.65 1011.67 1011.81 1011.99 1012.11 1012.29 1012.47 1012.47 1012.57 1012.77 1012.99 1013.11 1013.25 1013.35 1013.59 1013.81 1014.09 1014.17 1014.27 1014.49 1014.65 1014.79 1014.93 1015.27 1015.53 1015.85 1015.95 1016.11 1016.21 1016.31 1016.51 1016.75 1017.07
1010.39 1010.61 1010.77 1010.87 1010.91 1011.01 1011.13 1011.29 1011.31 1011.39 1011.45 1011.63 1011.67 1011.95 1012.23 1012.19 1012.27 1012.55 1012.69 1012.97 1013.03 1013.07 1013.23 1013.53 1013.67 1013.91 1014.01 1014.13 1014.25 1014.41 1014.61 1014.77 1015.13 1015.39 1015.59 1015.77 1015.83 1015.93 1016.11 1016.25 1016.55 1016.79
1009.99 1010.13 1010.27 1010.37 1010.59 1010.77 1010.89 1010.95 1011.01 1010.93 1011.19 1011.49 1011.73 1011.97 1011.89 1012.03 1012.27 1012.39 1012.65 1012.79 1012.89 1012.97 1013.09 1013.33 1013.45 1013.65 1013.75 1013.89 1014.03 1014.13 1014.33 1014.61 1014.93 1015.15 1015.31 1015.29 1015.39 1015.75 1015.89 1016.01 1016.23 1016.41
1009.57 1009.67 1009.77 1009.99 1010.21 1010.41 1010.57 1010.59 1010.61 1010.85 1011.11 1011.29 1011.43 1011.53 1011.65 1011.77 1012.03 1012.31 1012.49 1012.65 1012.79 1012.87 1012.99 1013.13 1013.25 1013.37 1013.47 1013.63 1013.77 1013.93 1014.13 1014.43 1014.77 1014.93 1015.01 1015.21 1015.49 1015.59 1015.67 1015.79 1016.09 1016.29
1009.11 1009.19 1009.37 1009.59 1009.83 1010.03 1010.17 1010.19 1010.33 1010.47 1010.65 1011.07 1011.27 1011.43 1011.65 1011.87 1012.09 1012.19 1012.29 1012.45 1012.63 1012.77 1012.87 1012.91 1013.05 1013.13 1013.19 1013.35 1013.57 1013.81 1014.09 1014.45 1014.65 1014.77 1014.93 1015.21 1015.41 1015.47 1015.55 1015.73 1015.89 1016.07
1008.65 1008.79 1008.97 1009.19 1009.41 1009.65 1009.69 1009.75 1009.97 1010.23 1010.51 1010.85 1010.99 1011.09 1011.27 1011.45 1011.49 1011.73 1011.93 1012.13 1012.33 1012.49 1012.43 1012.53 1012.75 1012.97 1013.03 1013.19 1013.45 1013.69 1014.01 1014.33 1014.49 1014.67 1014.89 1015.01 1015.13 1015.33 1015.49 1015.67 1015.89 1016.03
1008.35 1008.55 1008.67 1008.85 1009.11 1009.07 1008.99 1009.27 1009.69 1010.07 1010.25 1010.51 1010.47 1010.65 1010.85 1010.99 1011.27 1011.53 1011.71 1011.75 1011.83 1011.97 1012.01 1012.11 1012.47 1012.73 1012.83 1013.01 1013.21 1013.41 1013.59 1013.91 1014.21 1014.41 1014.69 1014.81 1015.09 1015.35 1015.49 1015.67 1015.81 1015.89
1008.25 1008.33 1008.43 1008.61 1008.71 1008.67 1008.93 1009.21 1009.39 1009.61 1010.01 1010.51 1010.55 1010.71 1010.83 1011.09 1011.25 1011.23 1011.45 1011.59 1011.57 1011.57 1011.81 1011.85 1012.13 1012.49 1012.69 1012.75 1012.93 1013.13 1013.39 1013.65 1013.87 1014.07 1014.35 1014.71 1014.89 1015.19 1015.51 1015.61 1015.83 1015.91
1008.05 1008.29 1008.29 1008.31 1008.33 1008.61 1008.91 1009.11 1009.47 1009.81 1009.97 1010.23 1010.45 1010.65 1010.83 1010.99 1011.13 1011.11 1011.15 1011.35 1011.57 1011.59 1011.63 1011.59 1011.75 1012.21 1012.45 1012.51 1012.63 1012.85 1013.01 1013.27 1013.53 1013.63 1013.83 1014.27 1014.59 1014.77 1015.15 1015.57 1015.71 1015.77
Wind_Speed
12 11 12 11 11 11 10 10 9 10 10 10 10 10 10 10 10 11 11 11 11 11 10 10 9 10 9 9 9 9 9 10 9 9 10 10 10 11 11 11 10 10
14 13 10 9 9 9 9 9 10 11 11 11 10 9 9 9 9 10 11 11 11 11 11 10 10 10 10 9 9 9 9 9 11 8 10 12 11 10 12 13 12 11
13 12 13 14 13 13 11 10 10 10 10 11 9 9 8 9 9 10 9 10 11 11 10 10 9 10 10 9 9 9 8 8 9 8 9 10 9 9 10 11 10 11
14 14 13 14 13 12 10 9 9 9 9 8 11 9 9 8 9 9 9 10 10 9 9 9 10 9 9 9 9 8 9 9 8 8 9 8 8 9 9 8 9 8
13 13 12 11 10 9 8 10 11 11 11 11 8 8 8 8 9 9 9 10 9 9 9 9 9 9 9 8 8 8 8 8 8 8 7 7 6 7 7 7 8 8
10 11 11 11 10 10 10 11 12 11 11 10 11 7 9 9 9 10 10 10 9 9 8 8 8 8 8 8 8 8 8 7 7 7 7 8 7 7 6 7 7 7
11 10 10 9 9 9 11 11 10 10 10 10 6 9 8 9 10 10 10 10 10 9 9 8 8 8 7 7 7 7 7 7 6 7 7 6 6 6 5 6 7 7
8 6 7 7 9 10 11 11 11 11 10 6 9 8 8 10 10 9 9 9 9 9 8 8 8 8 7 7 7 7 7 6 6 6 7 7 5 6 5 5 5 6
6 7 8 9 11 11 11 12 11 9 6 8 8 7 8 9 9 8 8 8 9 8 8 8 8 8 7 7 8 8 7 6 6 6 6 6 6 6 5 5 5 6
8 7 9 9 11 11 12 11 9 7 6 7 8 7 9 7 6 7 8 8 8 8 8 8 8 7 7 7 8 8 6 7 6 6 6 6 6 5 6 5 6 5
8 8 9 10 11 9 10 8 7 6 6 8 7 8 8 6 6 6 7 8 8 8 8 8 8 7 8 7 7 6 7 7 6 6 6 6 6 5 5 5 5 5
9 8 10 11 11 10 10 8 7 7 7 7 8 9 7 7 8 7 8 8 7 8 8 8 8 7 8 8 7 6 5 5 5 5 5 5 4 4 5 4 4 4
9 10 9 9 9 8 6 6 7 7 8 8 7 7 7 8 7 8 7 8 8 7 8 7 7 7 7 6 6 5 5 5 5 5 4 3 3 4 4 4 4 3
9 7 7 8 6 5 6 6 7 7 8 6 6 8 8 8 8 8 7 7 7 7 7 6 7 7 6 5 5 5 5 4 4 5 4 4 4 3 3 3 3 3
6 6 6 6 5 5 6 7 7 7 6 6 7 7 6 7 7 7 7 6 4 5 5 5 6 6 6 6 6 4 4 5 5 5 5 5 4 3 2 2 3 3
6 6 6 5 6 7 7 7 6 6 7 6 7 6 6 5 5 5 7 7 6 4 4 5 5 4 6 9 7 7 6 5 5 5 6 5 5 4 3 2 3 4
6 6 6 7 8 7 6 7 7 6 7 7 6 6 6 6 6 6 6 6 6 7 6 5 4 5 8 8 9 9 7 6 6 5 4 5 6 6 6 5 4 4
7 6 7 8 7 8 7 7 6 7 7 7 6 6 6 5 5 6 5 5 5 5 6 6 5 6 9 10 10 10 9 7 6 6 6 6 6 7 6 6 5 5
7 8 8 8 8 7 7 7 8 8 8 8 9 6 5 7 7 6 6 5 6 7 6 6 5 7 10 11 11 12 11 8 5 6 7 7 6 6 6 6 6 6
9 9 9 9 8 8 7 8 9 10 7 6 6 6 8 7 6 7 6 7 7 7 6 6 6 9 12 12 12 12 12 10 7 7 7 7 7 8 7 7 7 7
10 10 10 9 9 8 8 9 10 8 8 8 8 9 9 9 9 8 8 8 7 7 6 7 8 12 13 13 13 13 13 11 7 7 7 6 6 7 7 7 7 6
11 11 10 9 9 9 10 11 10 10 10 8 7 7 6 6 6 8 9 9 8 8 8 9 8 13 14 14 14 13 13 7 7 7 7 6 6 6 6 5 6 6
11 11 11 10 10 10 11 11 11 11 9 7 8 8 9 9 10 9 7 9 9 9 10 8 8 11 13 13 13 14 10 5 6 5 6 7 6 6 5 5 6 6
10 11 11 11 10 13 13 11 8 6 8 7 10 10 10 10 8 7 7 8 10 10 10 8 7 10 14 13 14 15 12 8 7 6 6 5 5 5 4 4 5 7
9 10 10 10 11 12 9 9 9 9 5 5 7 6 6 5 7 7 7 7 8 9 10 11 8 9 14 14 15 16 12 7 7 7 8 6 5 5 3 3 3 4
8 9 9 10 11 8 7 7 5 5 7 7 6 5 5 5 6 6 8 7 6 7 9 10 8 8 11 15 15 16 13 9 7 8 8 9 7 7 6 4 4 4
Wind_Direction
211 206 212 210 216 216 209 203 199 200 206 205 207 211 206 210 199 203 209 211 212 213 212 215 214 216 219 221 218 223 226 225 226 221 222 222 222 222 226 229 228 229
211 209 212 213 222 217 214 203 200 202 209 207 212 210 210 199 199 200 206 208 212 215 214 215 215 215 215 216 219 222 223 224 228 217 225 224 223 220 226 226 229 228
209 207 208 211 216 213 209 204 204 208 211 213 211 210 206 196 200 202 205 208 212 215 216 215 215 216 216 217 217 221 224 226 226 220 227 225 218 221 224 225 232 228
209 207 210 215 215 213 203 199 208 212 212 212 212 206 199 197 197 200 207 208 213 213 213 214 217 216 215 217 218 223 224 226 223 221 224 222 221 221 223 222 226 226
208 209 212 215 214 209 194 202 211 212 211 216 210 197 193 191 197 204 206 209 212 214 213 214 214 216 213 216 217 225 225 229 226 225 230 231 223 216 221 218 223 227
213 211 211 211 206 198 201 209 215 210 214 214 212 187 198 193 197 204 205 208 208 212 213 212 213 214 212 215 215 220 220 225 223 219 227 228 224 217 220 222 227 235
212 206 210 204 201 200 207 215 217 212 215 215 179 199 187 194 202 206 206 206 207 209 211 211 210 213 211 214 216 221 221 220 216 217 224 228 221 229 224 225 227 232
212 200 199 194 203 205 211 216 216 214 213 186 199 197 184 200 205 205 202 203 208 209 209 212 213 214 212 213 217 219 222 217 221 217 222 227 215 227 223 220 228 227
197 200 195 201 206 210 213 217 217 215 189 194 199 194 197 203 203 198 199 202 207 207 207 210 211 212 211 210 214 214 217 222 217 217 221 227 226 226 227 224 224 224
206 204 201 207 211 214 216 218 213 203 181 195 200 195 201 205 198 197 199 203 205 205 206 208 209 209 210 209 210 203 212 221 221 219 220 221 222 224 227 219 218 216
211 204 208 212 216 215 219 214 204 193 185 199 197 203 201 188 200 199 201 202 203 202 203 205 206 204 207 209 213 212 210 215 217 215 215 215 216 219 214 205 200 200
215 209 214 215 215 216 216 206 195 195 198 205 199 202 192 194 192 197 198 202 203 204 202 203 202 201 202 204 204 202 208 209 208 204 205 198 194 188 179 183 187 199
213 214 213 216 215 216 205 198 199 200 197 204 196 199 189 193 197 194 202 199 202 199 202 196 197 195 198 201 193 190 196 198 194 181 171 177 184 184 179 181 183 186
218 214 215 219 216 208 204 203 199 198 202 195 184 199 192 189 189 191 195 197 195 192 193 190 189 186 191 200 193 177 167 175 174 170 161 161 162 178 189 183 175 174
212 211 212 214 208 204 202 202 200 198 193 190 192 195 187 185 182 179 169 182 179 182 171 174 181 187 176 175 163 156 162 170 176 171 168 167 171 176 187 179 162 174
208 202 199 194 197 194 204 197 197 195 187 186 190 181 172 169 168 172 173 174 174 175 170 171 181 170 176 178 175 169 172 172 170 176 171 171 170 162 170 185 175 176
201 199 186 196 200 203 200 197 195 186 182 180 175 168 163 162 161 168 182 181 179 177 181 188 181 172 172 174 167 161 158 163 171 181 175 171 169 170 177 180 187 185
200 191 193 203 199 204 198 196 183 181 186 180 173 175 173 160 174 181 179 182 177 177 184 184 185 180 173 169 168 168 171 166 166 167 172 176 178 178 176 171 175 179
192 193 203 204 203 197 192 185 187 189 188 182 189 181 165 187 196 182 194 188 185 186 191 181 186 184 178 177 174 171 169 155 165 167 170 179 177 174 174 176 170 172
197 197 204 204 194 193 188 190 192 198 190 183 170 176 192 196 196 203 201 203 200 197 195 193 197 193 186 183 183 176 170 165 170 174 181 176 175 180 179 176 174 173
200 199 205 198 194 191 191 199 199 191 187 188 184 189 191 195 194 197 202 201 201 195 194 200 206 192 188 185 184 181 178 173 173 178 175 179 181 178 175 174 174 174
200 202 203 197 193 192 196 203 200 195 193 185 185 194 195 186 201 193 191 191 188 186 187 196 199 189 183 183 180 181 172 166 170 171 168 167 169 168 166 151 145 154
203 201 201 198 193 195 204 205 199 199 196 179 191 197 193 197 197 191 185 181 185 189 188 191 189 192 184 181 179 171 158 165 164 161 163 167 166 154 151 146 151 163
203 200 201 198 195 204 208 206 202 201 201 188 196 194 199 199 184 185 188 188 184 190 190 183 189 188 184 180 176 172 167 167 168 163 166 158 142 149 149 162 170 171
205 203 202 200 204 212 204 201 201 201 188 181 204 197 203 178 186 187 191 195 196 187 186 185 184 187 186 180 179 175 170 167 165 164 162 168 158 158 162 158 169 181
197 206 208 204 210 204 198 204 182 177 188 189 197 194 191 189 190 192 191 200 192 192 192 191 178 182 187 183 180 177 171 167 170 168 171 169 173 164 157 175 181 176